• In Österreich
  • Länderverzeichnis
  • Für 7 Tage
  • Wassertemperatur
  • Satellitenkarten
  • Wetterkarte
  • News
  • Widgets
  • user-avatar
    Anmelden

    Stündliche Wetter Kampinos

    Heute, 19 September, Mittwoch

    Zeit Temperatur Niederschläge Wind Luftdruck Luftfeuchtigkeit
    00:00 +19°C° 0 mm 4 m/S 755 mmHg 69%
    01:00 +18°C° 0 mm 3 m/S 755 mmHg 70%
    02:00 +18°C° 0 mm 3 m/S 755 mmHg 70%
    03:00 +18°C° 0 mm 3 m/S 755 mmHg 69%
    04:00 +18°C° 0 mm 3 m/S 755 mmHg 69%
    05:00 +18°C° 0 mm 3 m/S 755 mmHg 67%
    06:00 +19°C° 0 mm 3 m/S 755 mmHg 65%
    07:00 +19°C° 0 mm 3 m/S 756 mmHg 61%
    08:00 +21°C° 0 mm 3 m/S 756 mmHg 56%
    09:00 +24°C° 0 mm 3 m/S 756 mmHg 52%
    10:00 +26°C° 0 mm 4 m/S 756 mmHg 47%
    11:00 +27°C° 0 mm 4 m/S 756 mmHg 45%
    12:00 +28°C° 0 mm 4 m/S 756 mmHg 43%
    13:00 +29°C° 0 mm 4 m/S 755 mmHg 40%
    14:00 +29°C° 0 mm 3 m/S 755 mmHg 42%
    15:00 +29°C° 0 mm 3 m/S 755 mmHg 44%
    16:00 +29°C° 0 mm 3 m/S 755 mmHg 45%
    17:00 +27°C° 0 mm 2 m/S 755 mmHg 50%
    18:00 +25°C° 0 mm 2 m/S 756 mmHg 55%
    19:00 +23°C° 0 mm 2 m/S 756 mmHg 60%
    20:00 +23°C° 0 mm 2 m/S 756 mmHg 62%
    21:00 +21°C° 0 mm 2 m/S 756 mmHg 64%
    22:00 +20°C° 0 mm 2 m/S 756 mmHg 67%
    23:00 +20°C° 0 mm 2 m/S 756 mmHg 69%

    Morgen, 20 September, Donnerstag

    Zeit Temperatur Niederschläge Wind Luftdruck Luftfeuchtigkeit
    00:00 +20°C° 0 mm 2 m/S 756 mmHg 71%
    01:00 +19°C° 0 mm 2 m/S 756 mmHg 73%
    02:00 +19°C° 0 mm 2 m/S 756 mmHg 74%
    03:00 +19°C° 0 mm 2 m/S 756 mmHg 76%
    04:00 +18°C° 0 mm 2 m/S 756 mmHg 78%
    05:00 +19°C° 0 mm 2 m/S 756 mmHg 76%
    06:00 +20°C° 0 mm 2 m/S 756 mmHg 74%
    07:00 +20°C° 0 mm 2 m/S 757 mmHg 72%
    08:00 +23°C° 0 mm 2 m/S 757 mmHg 66%
    09:00 +25°C° 0 mm 2 m/S 757 mmHg 59%
    10:00 +27°C° 0 mm 2 m/S 757 mmHg 53%
    11:00 +28°C° 0 mm 2 m/S 757 mmHg 49%
    12:00 +29°C° 0 mm 2 m/S 756 mmHg 46%
    13:00 +30°C° 0 mm 3 m/S 756 mmHg 43%
    14:00 +30°C° 0 mm 2 m/S 756 mmHg 43%
    15:00 +30°C° 0 mm 2 m/S 756 mmHg 44%
    16:00 +30°C° 0 mm 2 m/S 755 mmHg 45%
    17:00 +28°C° 0 mm 2 m/S 755 mmHg 50%
    18:00 +26°C° 0 mm 2 m/S 756 mmHg 54%
    19:00 +24°C° 0 mm 2 m/S 756 mmHg 59%
    20:00 +23°C° 0 mm 2 m/S 756 mmHg 61%
    21:00 +23°C° 0 mm 2 m/S 756 mmHg 62%
    22:00 +21°C° 0 mm 2 m/S 756 mmHg 64%
    23:00 +21°C° 0 mm 2 m/S 756 mmHg 64%

    übermorgen, 21 September, Freitag

    Zeit Temperatur Niederschläge Wind Luftdruck Luftfeuchtigkeit
    00:00 +20°C° 0 mm 2 m/S 755 mmHg 65%
    01:00 +20°C° 0 mm 2 m/S 755 mmHg 65%
    02:00 +19°C° 0 mm 2 m/S 755 mmHg 65%
    03:00 +19°C° 0 mm 3 m/S 755 mmHg 64%
    04:00 +18°C° 0 mm 3 m/S 755 mmHg 64%
    05:00 +19°C° 0 mm 3 m/S 755 mmHg 63%
    06:00 +19°C° 0 mm 3 m/S 755 mmHg 62%
    07:00 +19°C° 0 mm 3 m/S 754 mmHg 61%
    08:00 +21°C° 0 mm 4 m/S 754 mmHg 56%
    09:00 +25°C° 0 mm 4 m/S 754 mmHg 51%
    10:00 +27°C° 0 mm 5 m/S 753 mmHg 46%
    11:00 +27°C° 0 mm 5 m/S 753 mmHg 42%
    12:00 +28°C° 0 mm 5 m/S 752 mmHg 39%
    13:00 +29°C° 0 mm 6 m/S 752 mmHg 36%
    14:00 +29°C° 0 mm 5 m/S 751 mmHg 38%
    15:00 +28°C° 0 mm 5 m/S 750 mmHg 39%
    16:00 +28°C° 0 mm 5 m/S 750 mmHg 41%
    17:00 +27°C° 0 mm 5 m/S 750 mmHg 44%
    18:00 +25°C° 0 mm 5 m/S 749 mmHg 47%
    19:00 +23°C° 0 mm 5 m/S 749 mmHg 49%
    20:00 +23°C° 0 mm 5 m/S 749 mmHg 49%
    21:00 +23°C° 0 mm 6 m/S 749 mmHg 48%
    22:00 +23°C° 0 mm 6 m/S 749 mmHg 47%
    23:00 +22°C° 0 mm 6 m/S 750 mmHg 56%

    22 September, Samstag

    Zeit Temperatur Niederschläge Wind Luftdruck Luftfeuchtigkeit
    00:00 +21°C° 0 mm 6 m/S 751 mmHg 64%
    01:00 +20°C° 0 mm 6 m/S 751 mmHg 72%
    02:00 +17°C° 0 mm 6 m/S 752 mmHg 68%
    03:00 +16°C° 0 mm 5 m/S 752 mmHg 65%
    04:00 +15°C° 0 mm 5 m/S 753 mmHg 62%
    05:00 +14°C° 0.3 mm 5 m/S 754 mmHg 66%
    06:00 +13°C° 0.3 mm 4 m/S 754 mmHg 70%
    07:00 +13°C° 0.3 mm 4 m/S 755 mmHg 74%
    08:00 +13°C° 0.4 mm 4 m/S 755 mmHg 75%
    09:00 +13°C° 0.4 mm 4 m/S 755 mmHg 75%
    10:00 +13°C° 0.4 mm 4 m/S 755 mmHg 76%
    11:00 +13°C° 0.6 mm 5 m/S 755 mmHg 75%
    12:00 +13°C° 0.6 mm 5 m/S 755 mmHg 74%
    13:00 +13°C° 0.6 mm 5 m/S 755 mmHg 73%
    14:00 +13°C° 0.3 mm 5 m/S 755 mmHg 72%
    15:00 +13°C° 0.3 mm 5 m/S 755 mmHg 71%
    16:00 +13°C° 0.3 mm 5 m/S 755 mmHg 70%
    17:00 +12°C° 0.2 mm 5 m/S 755 mmHg 72%
    18:00 +12°C° 0.2 mm 5 m/S 755 mmHg 73%
    19:00 +12°C° 0.2 mm 4 m/S 755 mmHg 75%
    20:00 +11°C° 0 mm 4 m/S 755 mmHg 75%
    21:00 +11°C° 0 mm 4 m/S 755 mmHg 75%
    22:00 +10°C° 0 mm 3 m/S 755 mmHg 75%
    23:00 +10°C° 0 mm 3 m/S 755 mmHg 75%

    23 September, Sonntag

    Zeit Temperatur Niederschläge Wind Luftdruck Luftfeuchtigkeit
    00:00 +10°C° 0 mm 3 m/S 755 mmHg 75%
    01:00 +9°C° 0 mm 3 m/S 755 mmHg 75%
    02:00 +9°C° 0 mm 3 m/S 755 mmHg 76%
    03:00 +9°C° 0 mm 3 m/S 755 mmHg 77%
    04:00 +8°C° 0 mm 3 m/S 756 mmHg 77%
    05:00 +8°C° 0 mm 4 m/S 756 mmHg 76%
    06:00 +8°C° 0 mm 4 m/S 756 mmHg 74%
    07:00 +10°C° 0 mm 4 m/S 756 mmHg 73%
    08:00 +11°C° 0 mm 4 m/S 756 mmHg 65%
    09:00 +13°C° 0 mm 5 m/S 756 mmHg 57%
    10:00 +15°C° 0 mm 5 m/S 756 mmHg 49%
    11:00 +15°C° 0 mm 5 m/S 755 mmHg 47%
    12:00 +16°C° 0 mm 5 m/S 755 mmHg 44%
    13:00 +17°C° 0 mm 5 m/S 754 mmHg 42%
    14:00 +18°C° 0 mm 4 m/S 753 mmHg 43%
    15:00 +18°C° 0 mm 4 m/S 753 mmHg 44%
    16:00 +18°C° 0 mm 3 m/S 752 mmHg 45%
    17:00 +17°C° 0 mm 3 m/S 752 mmHg 48%
    18:00 +14°C° 0 mm 4 m/S 751 mmHg 51%
    19:00 +13°C° 0 mm 4 m/S 750 mmHg 53%
    20:00 +13°C° 0 mm 5 m/S 749 mmHg 54%
    21:00 +14°C° 0 mm 6 m/S 748 mmHg 54%
    22:00 +14°C° 0 mm 6 m/S 747 mmHg 55%
    23:00 +14°C° 0.2 mm 7 m/S 747 mmHg 57%

    24 September, Montag

    Zeit Temperatur Niederschläge Wind Luftdruck Luftfeuchtigkeit
    00:00 +14°C° 0.2 mm 7 m/S 746 mmHg 59%
    01:00 +14°C° 0.2 mm 7 m/S 745 mmHg 62%
    02:00 +13°C° 2.6 mm 6 m/S 744 mmHg 69%
    03:00 +13°C° 2.6 mm 5 m/S 744 mmHg 76%
    04:00 +12°C° 2.6 mm 4 m/S 743 mmHg 83%
    05:00 +12°C° 0.6 mm 4 m/S 743 mmHg 82%
    06:00 +13°C° 0.6 mm 5 m/S 742 mmHg 81%
    07:00 +13°C° 0.6 mm 5 m/S 742 mmHg 80%
    08:00 +13°C° 0.1 mm 5 m/S 742 mmHg 80%
    09:00 +14°C° 0.1 mm 5 m/S 742 mmHg 80%
    10:00 +14°C° 0.1 mm 5 m/S 742 mmHg 81%
    11:00 +14°C° 0.1 mm 5 m/S 742 mmHg 78%
    12:00 +14°C° 0.1 mm 6 m/S 742 mmHg 75%
    13:00 +14°C° 0.1 mm 6 m/S 742 mmHg 72%
    14:00 +14°C° 0.1 mm 6 m/S 743 mmHg 71%
    15:00 +14°C° 0.1 mm 5 m/S 743 mmHg 70%
    16:00 +14°C° 0.1 mm 5 m/S 743 mmHg 69%
    17:00 +14°C° 0 mm 5 m/S 743 mmHg 71%
    18:00 +13°C° 0 mm 5 m/S 743 mmHg 72%
    19:00 +13°C° 0 mm 6 m/S 743 mmHg 74%
    20:00 +11°C° 0.1 mm 6 m/S 744 mmHg 74%
    21:00 +11°C° 0.1 mm 7 m/S 744 mmHg 73%
    22:00 +10°C° 0.1 mm 7 m/S 745 mmHg 73%
    23:00 +10°C° 0 mm 7 m/S 745 mmHg 72%
    Mehr zeigen